logo
Search for airport 
image banner adimage banner adimage banner ad
image banner ad

EHJI - K5-D (Oil Platform)

Located in , Netherlands

ICAO - , IATA -

Data provided by Airmate  

General information

Coordinates: N53°41'27" E3°29'14"
Elevation is feet MSL.
 
View others Airports in Noord-Holland

Operational data

Special qualification required
Current time UTC:
Current local time:
Weather at : EHJA - J6-A (Oil Platform) ( 39 km )
METAR: EHJA 272355Z AUTO 20010KT 9999 NSC 12/11 Q1014
View NOTAMs / SUP AIP / TFR affecting this airport [VIEW]
Communications frequencies: [VIEW]

Runways:

Airport contact information

Address: Netherlands

Satellite view of EHJI